,,PA_Meas_PMT16A,,PR_Meas_QMR101_102,,RH_Meas_QMH101,,SR_Meas_QMS101,,TA_Meas_QMH101,,GenWind,,GenWind,
time,status,PA,status,PR,status,RH,status,SR,status,TA,status,DirAvg,status,SpdAvg,
2013-05-16, 00:00:04,VALID,916.923,VALID,0,VALID,92.2128,VALID,0,VALID,21.4599,VALID,24,VALID,0,
2013-05-16, 00:01:04,VALID,916.957,VALID,0,VALID,92.4034,VALID,0,VALID,21.3998,VALID,24,VALID,0,
2013-05-16, 00:02:04,VALID,916.955,VALID,0,VALID,92.472,VALID,0,VALID,21.3608,VALID,24,VALID,0,
2013-05-16, 00:03:04,VALID,916.958,VALID,0,VALID,92.3424,VALID,0,VALID,21.3608,VALID,24,VALID,0,
2013-05-16, 00:04:04,VALID,917.008,VALID,0,VALID,92.3424,VALID,0,VALID,21.3608,VALID,24,VALID,0,
2013-05-16, 00:05:04,VALID,916.974,VALID,0,VALID,92.1061,VALID,0,VALID,21.3998,VALID,7,VALID,0,
2013-05-16, 00:06:04,VALID,916.961,VALID,0,VALID,92.007,VALID,0,VALID,21.4372,VALID,7,VALID,0,
2013-05-16, 00:07:04,VALID,916.945,VALID,0,VALID,91.5572,VALID,0,VALID,21.4762,VALID,7,VALID,0,
2013-05-16, 00:08:04,VALID,916.948,VALID,0,VALID,91.5267,VALID,0,VALID,21.5363,VALID,7,VALID,0,
2013-05-16, 00:09:04,VALID,916.944,VALID,0,VALID,91.4048,VALID,0,VALID,21.5542,VALID,7,VALID,0,
2013-05-16, 00:10:04,VALID,916.943,VALID,0,VALID,91.5039,VALID,0,VALID,21.5559,VALID,7,VALID,0,
2013-05-16, 00:11:04,VALID,916.888,VALID,0,VALID,91.5267,VALID,0,VALID,21.5559,VALID,7,VALID,0,
2013-05-16, 00:12:04,VALID,916.875,VALID,0,VALID,91.664,VALID,0,VALID,21.5559,VALID,350,VALID,0,
2013-05-16, 00:13:04,VALID,916.836,VALID,0,VALID,91.7783,VALID,0,VALID,21.4957,VALID,357,VALID,0,
2013-05-16, 00:14:04,VALID,916.776,VALID,0,VALID,91.9384,VALID,0.107441,VALID,21.5168,VALID,7,VALID,0,
2013-05-16, 00:15:04,VALID,916.753,VALID,0,VALID,91.9079,VALID,0,VALID,21.4567,VALID,23,VALID,0,
2013-05-16, 00:16:04,VALID,916.723,VALID,0,VALID,91.8469,VALID,0,VALID,21.4567,VALID,23,VALID,0,
2013-05-16, 00:17:04,VALID,916.716,VALID,0,VALID,91.9918,VALID,0,VALID,21.5168,VALID,23,VALID,0,
2013-05-16, 00:18:04,VALID,916.724,VALID,0,VALID,91.7707,VALID,0,VALID,21.4762,VALID,23,VALID,0,
2013-05-16, 00:19:04,VALID,916.715,VALID,0,VALID,91.9613,VALID,0,VALID,21.5152,VALID,23,VALID,0,
2013-05-16, 00:20:04,VALID,916.74,VALID,0,VALID,92.2281,VALID,0,VALID,21.5542,VALID,23,VALID,0,
2013-05-16, 00:21:04,VALID,916.768,VALID,0,VALID,91.7783,VALID,0,VALID,21.5347,VALID,23,VALID,0,
2013-05-16, 00:22:04,VALID,916.815,VALID,0,VALID,91.8774,VALID,0,VALID,21.5347,VALID,23,VALID,0,
2013-05-16, 00:23:04,VALID,916.852,VALID,0,VALID,92.0604,VALID,0,VALID,21.5754,VALID,23,VALID,0,
2013-05-16, 00:24:04,VALID,916.882,VALID,0,VALID,91.7783,VALID,0,VALID,21.5363,VALID,23,VALID,0,
2013-05-16, 00:25:04,VALID,916.934,VALID,0,VALID,91.3666,VALID,0,VALID,21.4957,VALID,23,VALID,0,
2013-05-16, 00:26:04,VALID,916.945,VALID,0,VALID,91.3057,VALID,0,VALID,21.5363,VALID,23,VALID,0,
2013-05-16, 00:27:04,VALID,916.951,VALID,0,VALID,90.8635,VALID,0,VALID,21.5347,VALID,23,VALID,0,
2013-05-16, 00:28:04,VALID,916.99,VALID,0,VALID,90.8178,VALID,0,VALID,21.5754,VALID,23,VALID,0,
2013-05-16, 00:29:04,VALID,917.007,VALID,0,VALID,90.8178,VALID,0,VALID,21.4957,VALID,23,VALID,0,
2013-05-16, 00:30:04,VALID,916.94,VALID,0,VALID,90.9702,VALID,0,VALID,21.4778,VALID,23,VALID,0,
2013-05-16, 00:31:04,VALID,916.936,VALID,0,VALID,91.0922,VALID,0,VALID,21.4567,VALID,23,VALID,0,
2013-05-16, 00:32:04,VALID,916.963,VALID,0,VALID,91.3057,VALID,0,VALID,21.4388,VALID,23,VALID,0,
2013-05-16, 00:33:04,VALID,916.943,VALID,0,VALID,91.4962,VALID,0,VALID,21.3591,VALID,23,VALID,0,
2013-05-16, 00:34:04,VALID,916.934,VALID,0,VALID,91.8317,VALID,0,VALID,21.3608,VALID,23,VALID,0,
2013-05-16, 00:35:04,VALID,916.936,VALID,0,VALID,92.0909,VALID,0,VALID,21.2811,VALID,23,VALID,0,
2013-05-16, 00:36:04,VALID,916.939,VALID,0,VALID,92.2814,VALID,0,VALID,21.3022,VALID,23,VALID,0,
2013-05-16, 00:37:04,VALID,916.923,VALID,0,VALID,92.3577,VALID,0,VALID,21.2616,VALID,23,VALID,0,
2013-05-16, 00:38:04,VALID,916.918,VALID,0,VALID,92.5711,VALID,0,VALID,21.2811,VALID,23,VALID,0,
2013-05-16, 00:39:04,VALID,916.91,VALID,0,VALID,92.6931,VALID,0,VALID,21.3201,VALID,23,VALID,0,
2013-05-16, 00:40:04,VALID,916.905,VALID,0,VALID,92.7846,VALID,0.107441,VALID,21.3591,VALID,23,VALID,0,
2013-05-16, 00:41:04,VALID,916.872,VALID,0,VALID,92.6626,VALID,0,VALID,21.3786,VALID,23,VALID,0,
2013-05-16, 00:42:04,VALID,916.871,VALID,0,VALID,92.6474,VALID,0,VALID,21.3803,VALID,23,VALID,0,
2013-05-16, 00:43:04,VALID,916.851,VALID,0,VALID,92.5864,VALID,0,VALID,21.3412,VALID,23,VALID,0,
2013-05-16, 00:44:04,VALID,916.824,VALID,0,VALID,92.7236,VALID,0,VALID,21.3006,VALID,23,VALID,0,
2013-05-16, 00:45:04,VALID,916.797,VALID,0,VALID,92.8761,VALID,0,VALID,21.3006,VALID,23,VALID,0,
2013-05-16, 00:46:04,VALID,916.782,VALID,0,VALID,93.0209,VALID,0,VALID,21.3006,VALID,23,VALID,0,
2013-05-16, 00:47:04,VALID,916.756,VALID,0,VALID,92.9752,VALID,0,VALID,21.2616,VALID,23,VALID,0,
2013-05-16, 00:48:05,VALID,916.727,VALID,0,VALID,92.8685,VALID,0,VALID,21.2827,VALID,23,VALID,0,
2013-05-16, 00:49:05,VALID,916.697,VALID,0,VALID,92.9066,VALID,0,VALID,21.2437,VALID,23,VALID,0,
2013-05-16, 00:50:05,VALID,916.683,VALID,0,VALID,93.0972,VALID,0,VALID,21.2226,VALID,23,VALID,0,
2013-05-16, 00:51:05,VALID,916.654,VALID,0,VALID,93.1124,VALID,0,VALID,21.2421,VALID,23,VALID,0,
2013-05-16, 00:52:05,VALID,916.608,VALID,0,VALID,93.0819,VALID,0,VALID,21.2632,VALID,23,VALID,0,
2013-05-16, 00:53:05,VALID,916.61,VALID,0,VALID,93.2496,VALID,0,VALID,21.2827,VALID,23,VALID,0,
2013-05-16, 00:54:05,VALID,916.563,VALID,0,VALID,93.1505,VALID,0,VALID,21.3022,VALID,23,VALID,0,
2013-05-16, 00:55:05,VALID,916.537,VALID,0,VALID,93.0438,VALID,0,VALID,21.3217,VALID,23,VALID,0,
2013-05-16, 00:56:05,VALID,916.515,VALID,0,VALID,92.9828,VALID,0,VALID,21.3217,VALID,23,VALID,0,
2013-05-16, 00:57:05,VALID,916.48,VALID,0,VALID,92.8685,VALID,0,VALID,21.3412,VALID,23,VALID,0,
2013-05-16, 00:58:05,VALID,916.48,VALID,0,VALID,92.6779,VALID,0,VALID,21.3412,VALID,23,VALID,0,
2013-05-16, 00:59:05,VALID,916.459,VALID,0,VALID,92.4644,VALID,0,VALID,21.3022,VALID,23,VALID,0,
2013-05-16, 01:00:05,VALID,916.456,VALID,0,VALID,92.5559,VALID,0,VALID,21.2437,VALID,23,VALID,0,
2013-05-16, 01:01:05,VALID,916.447,VALID,0,VALID,92.655,VALID,0,VALID,21.1445,VALID,23,VALID,0,
2013-05-16, 01:02:05,VALID,916.429,VALID,0,VALID,92.8837,VALID,0,VALID,21.1055,VALID,23,VALID,0,
2013-05-16, 01:03:05,VALID,916.4,VALID,0,VALID,93.2268,VALID,0,VALID,21.0665,VALID,23,VALID,0,
2013-05-16, 01:04:05,VALID,916.407,VALID,0,VALID,93.5927,VALID,0,VALID,21.0681,VALID,23,VALID,0,
2013-05-16, 01:05:05,VALID,916.384,VALID,0,VALID,93.8366,VALID,0,VALID,21.0486,VALID,23,VALID,0,
2013-05-16, 01:06:05,VALID,916.365,VALID,0,VALID,93.9662,VALID,0,VALID,21.0291,VALID,23,VALID,0,
2013-05-16, 01:07:05,VALID,916.342,VALID,0,VALID,94.1263,VALID,0,VALID,21.008,VALID,23,VALID,0,
2013-05-16, 01:08:05,VALID,916.367,VALID,0,VALID,94.2635,VALID,0,VALID,21.008,VALID,49,VALID,0,
2013-05-16, 01:09:05,VALID,916.351,VALID,0,VALID,94.3093,VALID,0,VALID,21.0275,VALID,71,VALID,0,
2013-05-16, 01:10:05,VALID,916.368,VALID,0,VALID,94.2483,VALID,0,VALID,21.0096,VALID,80,VALID,0,
2013-05-16, 01:11:05,VALID,916.388,VALID,0,VALID,94.3093,VALID,0,VALID,21.008,VALID,81,VALID,0,
2013-05-16, 01:12:05,VALID,916.411,VALID,0,VALID,94.3321,VALID,0,VALID,21.0291,VALID,66,VALID,0,
2013-05-16, 01:13:05,VALID,916.433,VALID,0,VALID,94.294,VALID,0,VALID,21.0275,VALID,65,VALID,0,
2013-05-16, 01:14:05,VALID,916.424,VALID,0,VALID,94.3245,VALID,0.107441,VALID,21.008,VALID,86,VALID,0,
2013-05-16, 01:15:05,VALID,916.404,VALID,0,VALID,94.3321,VALID,0,VALID,20.9495,VALID,105,VALID,0,
2013-05-16, 01:16:05,VALID,916.413,VALID,0,VALID,94.4389,VALID,0,VALID,20.9511,VALID,119,VALID,0,
2013-05-16, 01:17:05,VALID,916.383,VALID,0,VALID,94.5456,VALID,0,VALID,20.9511,VALID,131,VALID,0,
2013-05-16, 01:18:05,VALID,916.366,VALID,0,VALID,94.5837,VALID,0,VALID,20.9105,VALID,160,VALID,0,
2013-05-16, 01:19:05,VALID,916.329,VALID,0,VALID,94.7209,VALID,0,VALID,20.93,VALID,177,VALID,0,
2013-05-16, 01:20:05,VALID,916.306,VALID,0,VALID,94.8124,VALID,0,VALID,20.969,VALID,177,VALID,0,
2013-05-16, 01:21:05,VALID,916.284,VALID,0,VALID,94.8582,VALID,0,VALID,20.9885,VALID,171,VALID,0,
2013-05-16, 01:22:05,VALID,916.242,VALID,0,VALID,94.8887,VALID,0,VALID,20.9885,VALID,164,VALID,0,
2013-05-16, 01:23:05,VALID,916.261,VALID,0,VALID,94.881,VALID,0,VALID,20.9885,VALID,163,VALID,0,
2013-05-16, 01:24:05,VALID,916.228,VALID,0,VALID,94.9039,VALID,0,VALID,21.008,VALID,163,VALID,0,
2013-05-16, 01:25:05,VALID,916.204,VALID,0,VALID,94.9192,VALID,0,VALID,21.008,VALID,163,VALID,0,
2013-05-16, 01:26:05,VALID,916.207,VALID,0,VALID,94.8963,VALID,0,VALID,21.008,VALID,163,VALID,0,
2013-05-16, 01:27:05,VALID,916.192,VALID,0,VALID,94.8658,VALID,0,VALID,21.008,VALID,163,VALID,0,
2013-05-16, 01:28:05,VALID,916.198,VALID,0,VALID,94.8353,VALID,0,VALID,21.047,VALID,164,VALID,0,
2013-05-16, 01:29:05,VALID,916.199,VALID,0,VALID,94.7743,VALID,0,VALID,21.0486,VALID,164,VALID,0,
2013-05-16, 01:30:05,VALID,916.19,VALID,0,VALID,94.7438,VALID,0,VALID,21.0681,VALID,164,VALID,0,
2013-05-16, 01:31:05,VALID,916.183,VALID,0,VALID,94.6752,VALID,0,VALID,21.047,VALID,164,VALID,0,
2013-05-16, 01:32:05,VALID,916.168,VALID,0,VALID,94.6447,VALID,0,VALID,21.086,VALID,164,VALID,0,
2013-05-16, 01:33:05,VALID,916.183,VALID,0,VALID,94.5761,VALID,0,VALID,21.086,VALID,164,VALID,0,
2013-05-16, 01:34:05,VALID,916.166,VALID,0,VALID,94.3703,VALID,0,VALID,21.1071,VALID,164,VALID,0,
2013-05-16, 01:35:05,VALID,916.152,VALID,0,VALID,94.3169,VALID,0,VALID,21.086,VALID,164,VALID,0,
2013-05-16, 01:36:05,VALID,916.141,VALID,0,VALID,94.3398,VALID,0,VALID,21.1071,VALID,164,VALID,0,
2013-05-16, 01:37:05,VALID,916.176,VALID,0,VALID,94.3169,VALID,0,VALID,21.086,VALID,164,VALID,0,
2013-05-16, 01:38:05,VALID,916.191,VALID,0,VALID,94.2712,VALID,0,VALID,21.1055,VALID,164,VALID,0,
2013-05-16, 01:39:05,VALID,916.152,VALID,0,VALID,94.1416,VALID,0,VALID,21.1461,VALID,164,VALID,0,
2013-05-16, 01:40:05,VALID,916.14,VALID,0,VALID,94.0425,VALID,0,VALID,21.1852,VALID,164,VALID,0,
2013-05-16, 01:41:05,VALID,916.157,VALID,0,VALID,93.8519,VALID,0,VALID,21.1852,VALID,164,VALID,0,
2013-05-16, 01:42:05,VALID,916.148,VALID,0,VALID,93.5851,VALID,0,VALID,21.164,VALID,164,VALID,0,
2013-05-16, 01:43:05,VALID,916.165,VALID,0,VALID,93.4707,VALID,0,VALID,21.1461,VALID,164,VALID,0,
2013-05-16, 01:44:05,VALID,916.176,VALID,0,VALID,93.5393,VALID,0,VALID,21.125,VALID,164,VALID,0,
2013-05-16, 01:45:05,VALID,916.178,VALID,0,VALID,93.5393,VALID,0.107441,VALID,21.086,VALID,164,VALID,0,
2013-05-16, 01:46:05,VALID,916.175,VALID,0,VALID,93.6155,VALID,0,VALID,21.0876,VALID,164,VALID,0,
2013-05-16, 01:47:05,VALID,916.167,VALID,0,VALID,93.6613,VALID,0,VALID,21.0275,VALID,164,VALID,0,
2013-05-16, 01:48:05,VALID,916.166,VALID,0,VALID,93.7833,VALID,0,VALID,21.0096,VALID,164,VALID,0,
2013-05-16, 01:49:05,VALID,916.136,VALID,0,VALID,93.9205,VALID,0,VALID,20.969,VALID,164,VALID,0,
2013-05-16, 01:50:05,VALID,916.157,VALID,0,VALID,93.9586,VALID,0,VALID,20.9885,VALID,164,VALID,0,
2013-05-16, 01:51:05,VALID,916.168,VALID,0,VALID,94.0043,VALID,0,VALID,21.0096,VALID,164,VALID,0,
2013-05-16, 01:52:05,VALID,916.159,VALID,0,VALID,93.9434,VALID,0,VALID,21.0291,VALID,164,VALID,0,
2013-05-16, 01:53:05,VALID,916.169,VALID,0,VALID,93.8671,VALID,0,VALID,21.0291,VALID,164,VALID,0,
2013-05-16, 01:54:05,VALID,916.155,VALID,0,VALID,93.7528,VALID,0,VALID,21.0291,VALID,164,VALID,0,
2013-05-16, 01:55:05,VALID,916.144,VALID,0,VALID,93.5622,VALID,0,VALID,21.0096,VALID,164,VALID,0,
2013-05-16, 01:56:05,VALID,916.145,VALID,0,VALID,93.364,VALID,0,VALID,20.969,VALID,164,VALID,0,
2013-05-16, 01:57:05,VALID,916.165,VALID,0,VALID,93.4478,VALID,0,VALID,20.9706,VALID,164,VALID,0,
2013-05-16, 01:58:05,VALID,916.168,VALID,0,VALID,93.5774,VALID,0,VALID,20.9706,VALID,164,VALID,0,
2013-05-16, 01:59:05,VALID,916.153,VALID,0,VALID,93.646,VALID,0,VALID,20.969,VALID,164,VALID,0,
2013-05-16, 02:00:05,VALID,916.162,VALID,0,VALID,93.6003,VALID,0,VALID,21.0096,VALID,164,VALID,0,
2013-05-16, 02:01:05,VALID,916.131,VALID,0,VALID,93.6003,VALID,0,VALID,20.969,VALID,164,VALID,0,
2013-05-16, 02:02:05,VALID,916.123,VALID,0,VALID,93.7223,VALID,0,VALID,21.0096,VALID,164,VALID,0,
2013-05-16, 02:03:05,VALID,916.105,VALID,0,VALID,93.7147,VALID,0,VALID,21.0486,VALID,164,VALID,0,
2013-05-16, 02:04:05,VALID,916.115,VALID,0,VALID,93.5241,VALID,0,VALID,21.0291,VALID,164,VALID,0,
2013-05-16, 02:05:05,VALID,916.146,VALID,0,VALID,93.6308,VALID,0,VALID,21.0291,VALID,164,VALID,0,
2013-05-16, 02:06:05,VALID,916.156,VALID,0,VALID,93.7299,VALID,0,VALID,21.0681,VALID,164,VALID,0,
2013-05-16, 02:07:05,VALID,916.127,VALID,0,VALID,93.7223,VALID,0,VALID,21.0876,VALID,164,VALID,0,
2013-05-16, 02:08:05,VALID,916.145,VALID,0,VALID,93.6384,VALID,0,VALID,21.1461,VALID,164,VALID,0,
2013-05-16, 02:09:05,VALID,916.136,VALID,0,VALID,93.1886,VALID,0,VALID,21.1266,VALID,164,VALID,0,
2013-05-16, 02:10:05,VALID,916.147,VALID,0,VALID,92.8837,VALID,0,VALID,21.0876,VALID,164,VALID,0,
2013-05-16, 02:11:05,VALID,916.106,VALID,0,VALID,92.8227,VALID,0,VALID,21.0275,VALID,164,VALID,0,
2013-05-16, 02:12:05,VALID,916.126,VALID,0,VALID,92.8989,VALID,0,VALID,21.0096,VALID,164,VALID,0,
2013-05-16, 02:13:05,VALID,916.138,VALID,0,VALID,93.059,VALID,0,VALID,20.9706,VALID,164,VALID,0,
2013-05-16, 02:14:05,VALID,916.11,VALID,0,VALID,93.3259,VALID,0,VALID,20.9511,VALID,164,VALID,0,
2013-05-16, 02:15:05,VALID,916.109,VALID,0,VALID,93.5546,VALID,0,VALID,20.9316,VALID,164,VALID,0,
2013-05-16, 02:16:05,VALID,916.12,VALID,0,VALID,93.7756,VALID,0,VALID,20.93,VALID,164,VALID,0,
2013-05-16, 02:17:05,VALID,916.12,VALID,0,VALID,93.9281,VALID,0,VALID,20.969,VALID,164,VALID,0,
2013-05-16, 02:18:05,VALID,916.106,VALID,0,VALID,93.9586,VALID,0,VALID,21.0096,VALID,164,VALID,0,
2013-05-16, 02:19:05,VALID,916.083,VALID,0,VALID,93.9281,VALID,0,VALID,21.0291,VALID,164,VALID,0,
2013-05-16, 02:20:05,VALID,916.068,VALID,0,VALID,93.8671,VALID,0,VALID,21.0291,VALID,164,VALID,0,
2013-05-16, 02:21:05,VALID,916.039,VALID,0,VALID,93.829,VALID,0,VALID,21.0486,VALID,164,VALID,0,
2013-05-16, 02:22:05,VALID,916.059,VALID,0,VALID,93.7833,VALID,0,VALID,21.0681,VALID,164,VALID,0,
2013-05-16, 02:23:05,VALID,916.026,VALID,0,VALID,93.707,VALID,0,VALID,21.0681,VALID,164,VALID,0,
2013-05-16, 02:24:05,VALID,916.011,VALID,0,VALID,93.6537,VALID,0,VALID,21.0876,VALID,164,VALID,0,
2013-05-16, 02:25:05,VALID,916,VALID,0,VALID,93.5317,VALID,0,VALID,21.0876,VALID,164,VALID,0,
2013-05-16, 02:26:05,VALID,915.977,VALID,0,VALID,93.5622,VALID,0,VALID,21.0876,VALID,164,VALID,0,
2013-05-16, 02:27:05,VALID,915.999,VALID,0,VALID,93.5012,VALID,0,VALID,21.0876,VALID,164,VALID,0,
2013-05-16, 02:28:05,VALID,916.002,VALID,0,VALID,93.5164,VALID,0,VALID,21.1055,VALID,164,VALID,0,
2013-05-16, 02:29:05,VALID,916.014,VALID,0,VALID,93.4707,VALID,0,VALID,21.1266,VALID,164,VALID,0,
2013-05-16, 02:30:05,VALID,916.035,VALID,0,VALID,93.4783,VALID,0,VALID,21.1266,VALID,164,VALID,0,
2013-05-16, 02:31:05,VALID,916.035,VALID,0,VALID,93.5317,VALID,0,VALID,21.1266,VALID,164,VALID,0,
2013-05-16, 02:32:05,VALID,916.07,VALID,0,VALID,93.5241,VALID,0,VALID,21.1266,VALID,164,VALID,0,
2013-05-16, 02:33:05,VALID,916.067,VALID,0,VALID,93.5546,VALID,0,VALID,21.1055,VALID,163,VALID,0,
2013-05-16, 02:34:05,VALID,916.091,VALID,0,VALID,93.6003,VALID,0,VALID,21.1071,VALID,147,VALID,0,
2013-05-16, 02:35:05,VALID,916.088,VALID,0,VALID,93.6842,VALID,0,VALID,21.1071,VALID,147,VALID,0,
2013-05-16, 02:36:05,VALID,916.058,VALID,0,VALID,93.6765,VALID,0,VALID,21.0876,VALID,130,VALID,0,
2013-05-16, 02:37:05,VALID,916.052,VALID,0,VALID,93.646,VALID,0,VALID,21.047,VALID,130,VALID,0,
2013-05-16, 02:38:05,VALID,916.058,VALID,0,VALID,93.7375,VALID,0,VALID,21.0876,VALID,130,VALID,0,
2013-05-16, 02:39:05,VALID,916.036,VALID,0,VALID,93.7528,VALID,0,VALID,21.0876,VALID,130,VALID,0,
2013-05-16, 02:40:05,VALID,916.025,VALID,0,VALID,93.6232,VALID,0,VALID,21.0486,VALID,130,VALID,0,
2013-05-16, 02:41:05,VALID,916.026,VALID,0,VALID,93.6003,VALID,0,VALID,21.0486,VALID,130,VALID,0,
2013-05-16, 02:42:05,VALID,916.015,VALID,0,VALID,93.6537,VALID,0,VALID,21.0291,VALID,130,VALID,0,
2013-05-16, 02:43:05,VALID,916.01,VALID,0,VALID,93.6994,VALID,0,VALID,21.0096,VALID,130,VALID,0,
2013-05-16, 02:44:05,VALID,915.995,VALID,0,VALID,93.7604,VALID,0,VALID,20.9706,VALID,131,VALID,0,
2013-05-16, 02:45:05,VALID,915.996,VALID,0,VALID,93.8061,VALID,0,VALID,20.9105,VALID,131,VALID,0,
2013-05-16, 02:46:05,VALID,916.003,VALID,0,VALID,93.8824,VALID,0,VALID,20.8714,VALID,131,VALID,0,
2013-05-16, 02:47:05,VALID,915.967,VALID,0,VALID,93.9738,VALID,0,VALID,20.873,VALID,131,VALID,0,
2013-05-16, 02:48:05,VALID,915.966,VALID,0,VALID,94.0806,VALID,0,VALID,20.834,VALID,132,VALID,0,
2013-05-16, 02:49:05,VALID,915.947,VALID,0,VALID,94.2254,VALID,0,VALID,20.8145,VALID,131,VALID,0,
2013-05-16, 02:50:05,VALID,915.912,VALID,0,VALID,94.355,VALID,0,VALID,20.795,VALID,131,VALID,0,
2013-05-16, 02:51:05,VALID,915.913,VALID,0,VALID,94.4846,VALID,0,VALID,20.7544,VALID,131,VALID,0,
2013-05-16, 02:52:05,VALID,915.905,VALID,0,VALID,94.5609,VALID,0,VALID,20.756,VALID,131,VALID,0,
2013-05-16, 02:53:05,VALID,915.917,VALID,0,VALID,94.6828,VALID,0,VALID,20.7154,VALID,131,VALID,0,
2013-05-16, 02:54:05,VALID,915.899,VALID,0,VALID,94.7438,VALID,0,VALID,20.7365,VALID,131,VALID,0,
2013-05-16, 02:55:05,VALID,915.9,VALID,0,VALID,94.8048,VALID,0,VALID,20.7365,VALID,131,VALID,0,
2013-05-16, 02:56:05,VALID,915.917,VALID,0,VALID,94.8734,VALID,0,VALID,20.7365,VALID,131,VALID,0,
2013-05-16, 02:57:05,VALID,915.905,VALID,0,VALID,94.9268,VALID,0,VALID,20.7365,VALID,131,VALID,0,
2013-05-16, 02:58:05,VALID,915.892,VALID,0,VALID,94.8963,VALID,0,VALID,20.7365,VALID,131,VALID,0,
2013-05-16, 02:59:05,VALID,915.884,VALID,0,VALID,94.9573,VALID,0,VALID,20.7365,VALID,131,VALID,0,
2013-05-16, 03:00:05,VALID,915.887,VALID,0,VALID,94.9801,VALID,0,VALID,20.756,VALID,131,VALID,0,
2013-05-16, 03:01:05,VALID,915.878,VALID,0,VALID,94.9801,VALID,0,VALID,20.7544,VALID,131,VALID,0,
2013-05-16, 03:02:05,VALID,915.888,VALID,0,VALID,95.003,VALID,0,VALID,20.7739,VALID,131,VALID,0,
2013-05-16, 03:03:05,VALID,915.855,VALID,0,VALID,94.9268,VALID,0,VALID,20.795,VALID,131,VALID,0,
2013-05-16, 03:04:05,VALID,915.853,VALID,0,VALID,94.8582,VALID,0,VALID,20.795,VALID,132,VALID,0,
2013-05-16, 03:05:05,VALID,915.843,VALID,0,VALID,94.8429,VALID,0,VALID,20.8145,VALID,132,VALID,0,
2013-05-16, 03:06:05,VALID,915.859,VALID,0,VALID,94.8277,VALID,0,VALID,20.8129,VALID,132,VALID,0,
2013-05-16, 03:07:05,VALID,915.837,VALID,0,VALID,94.6142,VALID,0,VALID,20.834,VALID,132,VALID,0,
2013-05-16, 03:08:05,VALID,915.841,VALID,0,VALID,94.5609,VALID,0,VALID,20.873,VALID,132,VALID,0,
2013-05-16, 03:09:05,VALID,915.822,VALID,0,VALID,94.4617,VALID,0,VALID,20.8535,VALID,132,VALID,0,
2013-05-16, 03:10:05,VALID,915.813,VALID,0,VALID,94.3703,VALID,0,VALID,20.8535,VALID,132,VALID,0,
2013-05-16, 03:11:05,VALID,915.802,VALID,0,VALID,94.294,VALID,0,VALID,20.8519,VALID,132,VALID,0,
2013-05-16, 03:12:05,VALID,915.803,VALID,0,VALID,94.2254,VALID,0,VALID,20.873,VALID,132,VALID,0,
2013-05-16, 03:13:05,VALID,915.823,VALID,0,VALID,94.1568,VALID,0,VALID,20.8925,VALID,132,VALID,0,
2013-05-16, 03:14:05,VALID,915.796,VALID,0,VALID,94.1187,VALID,0,VALID,20.8714,VALID,132,VALID,0,
2013-05-16, 03:15:05,VALID,915.777,VALID,0,VALID,94.0882,VALID,0,VALID,20.912,VALID,132,VALID,0,
2013-05-16, 03:16:05,VALID,915.821,VALID,0,VALID,93.9815,VALID,0,VALID,20.912,VALID,132,VALID,0,
2013-05-16, 03:17:05,VALID,915.789,VALID,0,VALID,93.8824,VALID,0,VALID,20.891,VALID,132,VALID,0,
2013-05-16, 03:18:05,VALID,915.795,VALID,0,VALID,93.7604,VALID,0,VALID,20.8925,VALID,132,VALID,0,
2013-05-16, 03:19:05,VALID,915.769,VALID,0,VALID,93.6765,VALID,0,VALID,20.8925,VALID,132,VALID,0,
2013-05-16, 03:20:05,VALID,915.75,VALID,0,VALID,93.6537,VALID,0,VALID,20.9136,VALID,132,VALID,0,
2013-05-16, 03:21:05,VALID,915.759,VALID,0,VALID,93.6384,VALID,0,VALID,20.8925,VALID,132,VALID,0,
2013-05-16, 03:22:05,VALID,915.741,VALID,0,VALID,93.5774,VALID,0,VALID,20.873,VALID,132,VALID,0,
2013-05-16, 03:23:05,VALID,915.722,VALID,0,VALID,93.6003,VALID,0,VALID,20.873,VALID,132,VALID,0,
2013-05-16, 03:24:05,VALID,915.737,VALID,0,VALID,93.6155,VALID,0,VALID,20.8535,VALID,132,VALID,0,
2013-05-16, 03:25:05,VALID,915.745,VALID,0,VALID,93.6689,VALID,0,VALID,20.8129,VALID,132,VALID,0,
2013-05-16, 03:26:05,VALID,915.706,VALID,0,VALID,93.7604,VALID,0,VALID,20.8145,VALID,132,VALID,0,
2013-05-16, 03:27:05,VALID,915.72,VALID,0,VALID,93.9129,VALID,0,VALID,20.8145,VALID,132,VALID,0,
2013-05-16, 03:28:05,VALID,915.72,VALID,0,VALID,94.0577,VALID,0,VALID,20.795,VALID,135,VALID,0,
2013-05-16, 03:29:05,VALID,915.711,VALID,0,VALID,94.1416,VALID,0,VALID,20.795,VALID,135,VALID,0,
2013-05-16, 03:30:04,VALID,915.723,VALID,0,VALID,94.1873,VALID,0,VALID,20.795,VALID,135,VALID,0,
2013-05-16, 03:31:04,VALID,915.715,VALID,0,VALID,94.2178,VALID,0,VALID,20.7755,VALID,135,VALID,0,
2013-05-16, 03:32:04,VALID,915.701,VALID,0,VALID,94.2788,VALID,0,VALID,20.795,VALID,135,VALID,0,
2013-05-16, 03:33:04,VALID,915.694,VALID,0,VALID,94.294,VALID,0,VALID,20.8161,VALID,135,VALID,0,
2013-05-16, 03:34:04,VALID,915.719,VALID,0,VALID,94.3474,VALID,0,VALID,20.7755,VALID,135,VALID,0,
2013-05-16, 03:35:04,VALID,915.718,VALID,0,VALID,94.3398,VALID,0,VALID,20.7755,VALID,135,VALID,0,
2013-05-16, 03:36:04,VALID,915.713,VALID,0,VALID,94.416,VALID,0,VALID,20.7544,VALID,135,VALID,0,
2013-05-16, 03:37:04,VALID,915.7,VALID,0,VALID,94.4999,VALID,0,VALID,20.7349,VALID,137,VALID,0,
2013-05-16, 03:38:04,VALID,915.72,VALID,0,VALID,94.5456,VALID,0,VALID,20.7755,VALID,133,VALID,0,
2013-05-16, 03:39:04,VALID,915.722,VALID,0,VALID,94.5151,VALID,0,VALID,20.7755,VALID,133,VALID,0,
2013-05-16, 03:40:04,VALID,915.721,VALID,0,VALID,94.4846,VALID,0,VALID,20.756,VALID,133,VALID,0,
2013-05-16, 03:41:04,VALID,915.711,VALID,0,VALID,94.477,VALID,0,VALID,20.756,VALID,133,VALID,0,
2013-05-16, 03:42:04,VALID,915.732,VALID,0,VALID,94.5532,VALID,0,VALID,20.756,VALID,133,VALID,0,
2013-05-16, 03:43:04,VALID,915.739,VALID,0,VALID,94.5837,VALID,0,VALID,20.7755,VALID,133,VALID,0,
2013-05-16, 03:44:04,VALID,915.747,VALID,0,VALID,94.66,VALID,0,VALID,20.717,VALID,133,VALID,0,
2013-05-16, 03:45:04,VALID,915.717,VALID,0,VALID,94.7362,VALID,0,VALID,20.717,VALID,133,VALID,0,
2013-05-16, 03:46:04,VALID,915.731,VALID,0,VALID,94.7972,VALID,0,VALID,20.6764,VALID,133,VALID,0,
2013-05-16, 03:47:04,VALID,915.732,VALID,0,VALID,94.8505,VALID,0,VALID,20.717,VALID,133,VALID,0,
2013-05-16, 03:48:04,VALID,915.723,VALID,0,VALID,94.8963,VALID,0,VALID,20.6975,VALID,133,VALID,0,
2013-05-16, 03:49:04,VALID,915.751,VALID,0,VALID,94.9496,VALID,0,VALID,20.6975,VALID,133,VALID,0,
2013-05-16, 03:50:04,VALID,915.74,VALID,0,VALID,95.0259,VALID,0,VALID,20.6975,VALID,133,VALID,0,
2013-05-16, 03:51:04,VALID,915.757,VALID,0,VALID,95.0259,VALID,0,VALID,20.678,VALID,133,VALID,0,
2013-05-16, 03:52:04,VALID,915.772,VALID,0,VALID,95.003,VALID,0,VALID,20.6975,VALID,133,VALID,0,
2013-05-16, 03:53:04,VALID,915.767,VALID,0,VALID,95.0106,VALID,0,VALID,20.6569,VALID,133,VALID,0,
2013-05-16, 03:54:04,VALID,915.741,VALID,0,VALID,94.9954,VALID,0,VALID,20.699,VALID,133,VALID,0,
2013-05-16, 03:55:04,VALID,915.762,VALID,0,VALID,94.9573,VALID,0,VALID,20.6569,VALID,133,VALID,0,
2013-05-16, 03:56:04,VALID,915.76,VALID,0,VALID,94.9344,VALID,0,VALID,20.6975,VALID,133,VALID,0,
2013-05-16, 03:57:04,VALID,915.756,VALID,0,VALID,94.9039,VALID,0.107441,VALID,20.717,VALID,133,VALID,0,
2013-05-16, 03:58:04,VALID,915.745,VALID,0,VALID,94.8124,VALID,0,VALID,20.6975,VALID,133,VALID,0,
2013-05-16, 03:59:04,VALID,915.756,VALID,0,VALID,94.7362,VALID,0,VALID,20.7365,VALID,133,VALID,0,
2013-05-16, 04:00:04,VALID,915.716,VALID,0,VALID,94.6752,VALID,0,VALID,20.7755,VALID,133,VALID,0,
2013-05-16, 04:01:04,VALID,915.685,VALID,0,VALID,94.6066,VALID,0,VALID,20.8145,VALID,133,VALID,0,